STARLINK-4047 (53243 NORAD) Tracking and Keplerian Element Data

This shows tracking and keplerian element data for the satellite.

Feedback or suggestion? Click here.




ElementValue
Catalog53243
NameSTARLINK-4047
Epoch Orbit130
Epoch Day269.91667824
Epoch Year2022
RAAN99.4581
Inclination53.2131
Eccentricity0.0001546
Argument of Perigee58.1027
Mean Anonmoly113.6617
Mean Motion15.08828041
Decay Rate0.00033581
L11 53243U 22086B 22269.91667824 .00033581 00000+0 21187-2 0 9999
L22 53243 53.2131 99.4581 0001546 58.1027 113.6617 15.08828041 1305

Live tracking and technical data element details for STARLINK-4047 (NORAD 53243). STARLINK-4047 can be tracked NOW for your location showing map with azimuth and elevation plus other details from your city location.

Track the satellite on the map from your city or location and see movement details for azimuth, elevation, latitude, longitude, range, height, and movement on the map or in text.







IsCatalogInMostPopularTable: catalog: 53243, numindb: 2
Update: records affected: 1



GetName: 53243 STARLINK-4047

Hit Count: updated at: Thu, 29 Sep 2022 12:00:38 GMT